map of ECN home
ECN - Airport
Location
City:  Lefkosa, Cyprus
Near (Alt.):Nicosia
Name:Ercan International Airport
ICAO:LCEN
IATA:ECN

Details
Type:Airport (Aerodrome, Airfield)
Use:International (customs port of entry)
Latitude:3508'56"N (35.148889)
Longitude:3329'59"E (33.499722)
Elevation:402 ft (123 m)
Variation:4.97E (WMM2015 magnetic declination)
0.09 annual change
Runways:1
Longest:9039 × 148 ft (2755 × 45 m)

Time
Time Zone:UTC+2 (DST+3)
Local Time:

Weather
METAR:LCEN 230020Z 06005KT 9999 FEW025CB SCT030 17/14 Q1006 NOSIG RMK RWY11 00000KT
TAF:LCEN 221040Z 2212/2312 15015G25KT 9999 FEW025 BKN100
TEMPO 2212/2215 -SHRA PROB30
TEMPO 2215/2218 5000 TSRA FEW020CB BKN025 BKN080

Related Locations
Nearby:
Farthest:RVV: 11651 mi / 18750 km
Raivavae, Tubuai Islands, Austral Islands, PF

Find:

   beyond  
but within

Other Information
Maps:
NOTAMs:
Links:
Sources:

  
flag of Cyprus   

Sectional Chart

Flight Planning
at skyvector.com

Satellite Image

Google Maps Satellite view

 

Copyright © 2004-2017 Karl L. Swartz. All rights reserved.
The Great Circle Mapper name and logo are trademarks of the Great Circle Mapper.
All other trademarks mentioned herein belong to their respective owners.
Please see credits for attibutions and further copyright information.

  Follow gcmap on Facebook Follow gcmap on Twitter Follow gcmap on Google+ GCmap on LinkedIn

hCard Microformat

Geo Microformat